Mount Vernon, IL

6:02 AM CDT on August 17, 2017 (GMT -0500)
Mount Vernon

Weather History for KMVN - June, 2014

Change the Weather History Date:

Friday, June 6, 2014

  Actual Average Record
Temperature  
Mean Temperature 55 °F -  
Max Temperature 82 °F 78 °F 93 °F (2011)
Min Temperature 28 °F 59 °F 28 °F (2014)
Degree Days  
Heating Degree Days 10    
Growing Degree Days 5 (Base 50)    
Moisture  
Dew Point 60 °F    
Average Humidity 76    
Maximum Humidity 100    
Minimum Humidity 54    
Precipitation  
Precipitation 0.00 in - - ()
Sea Level Pressure  
Sea Level Pressure 29.96 in    
Wind  
Wind Speed 2 mph (ENE)    
Max Wind Speed 7 mph    
Max Gust Speed -    
Visibility 6 miles    
Events      
Averages and records for this station are not official NWS values.
T = Trace of Precipitation, MM = Missing Value Source: NWS Daily Summary

Daily Weather History Graph

Daily Weather History Graph

Search for Another Location

Airport or City:

Trip Planner

Search our weather history database for the weather conditions in past years. The results will help you decide how hot, cold, wet, or windy it might be!

Date:

Astronomy

Jun. 06, 2014 Rise Set
Actual Time 5:32 AM CDT 8:16 PM CDT
Civil Twilight 5:00 AM CDT 8:47 PM CDT
Nautical Twilight 4:21 AM CDT 9:27 PM CDT
Astronomical Twilight 3:37 AM CDT 10:11 PM CDT
Moon 1:40 PM CDT (6/6) 1:18 AM CDT (6/6)
Length of Visible Light 15h 46m
Length of Day
14h 44m
First Quarter, 58% of the Moon is Illuminated
Jun 6
First Quarter
Jun 12
Full
Jun 19
Last Quarter
Jun 27
New
Jul 5
First Quarter

Hourly Weather History & Observations

Time (CDT) Temp. Windchill Dew Point Humidity Pressure Visibility Wind Dir Wind Speed Gust Speed Precip Events Conditions
12:15 AM 60.8 °F - 59.0 °F 94% 29.93 in 1.2 mi Calm Calm - N/A   Clear
12:35 AM 60.8 °F - 57.2 °F 88% 29.93 in 0.8 mi Calm Calm - N/A   Unknown
12:55 AM 59.0 °F - 57.2 °F 94% 29.92 in 0.5 mi Calm Calm - N/A   Unknown
1:15 AM 60.8 °F - 57.2 °F 88% 29.92 in 1.8 mi Calm Calm - N/A   Clear
1:35 AM 59.0 °F - 57.2 °F 94% 29.90 in 0.5 mi Calm Calm - N/A   Unknown
1:55 AM 60.8 °F - 57.2 °F 88% 29.91 in 1.8 mi Calm Calm - N/A   Clear
2:15 AM 60.8 °F - 57.2 °F 88% 29.93 in 2.0 mi Calm Calm - N/A   Clear
2:35 AM 57.2 °F - 55.4 °F 94% 29.93 in 1.0 mi Calm Calm - N/A   Overcast
2:55 AM 59.0 °F - 57.2 °F 94% 29.94 in 1.5 mi Calm Calm - N/A   Mostly Cloudy
3:15 AM 60.8 °F - 57.2 °F 88% 29.94 in 2.0 mi Calm Calm - N/A   Overcast
3:35 AM 60.8 °F - 57.2 °F 88% 29.95 in 2.0 mi NNE 3.5 mph - N/A   Overcast
3:55 AM 60.8 °F - 59.0 °F 94% 29.94 in 2.5 mi NNE 3.5 mph - N/A   Mostly Cloudy
4:15 AM 60.8 °F - 59.0 °F 94% 29.94 in 3.0 mi Calm Calm - N/A   Mostly Cloudy
4:35 AM 60.8 °F - 59.0 °F 94% 29.94 in 3.0 mi Calm Calm - N/A   Partly Cloudy
4:55 AM 60.8 °F - 57.2 °F 88% 29.94 in 1.8 mi Calm Calm - N/A   Clear
5:15 AM 60.8 °F - 59.0 °F 94% 29.93 in 2.5 mi NNE 4.6 mph - N/A   Clear
5:35 AM 60.8 °F - 59.0 °F 94% 29.95 in 1.5 mi NNE 3.5 mph - N/A   Clear
5:55 AM 60.8 °F - 59.0 °F 94% 29.96 in 1.0 mi Calm Calm - N/A   Clear
6:15 AM 60.8 °F - 59.0 °F 94% 29.97 in 1.0 mi Calm Calm - N/A   Clear
6:35 AM 62.6 °F - 60.8 °F 94% 29.98 in 1.5 mi Calm Calm - N/A   Clear
6:55 AM 62.6 °F - 60.8 °F 94% 29.98 in 1.2 mi Calm Calm - N/A   Scattered Clouds
7:15 AM 64.4 °F - 62.6 °F 94% 29.99 in 1.8 mi North 3.5 mph - N/A   Scattered Clouds
7:35 AM - - - N/A% 29.99 in 2.5 mi NNE 3.5 mph - N/A   Clear
7:55 AM - - - N/A% 29.99 in 4.0 mi Calm Calm - N/A   Clear
8:15 AM - - - N/A% 29.99 in 7.0 mi NE 3.5 mph - N/A   Clear
8:35 AM - - - N/A% 29.99 in 10.0 mi ENE 4.6 mph - N/A   Scattered Clouds
8:55 AM 71.6 °F - 64.4 °F 78% 30.00 in 10.0 mi East 5.8 mph - N/A   Partly Cloudy
9:15 AM 71.6 °F - 64.4 °F 78% 29.99 in 10.0 mi East 5.8 mph - N/A   Partly Cloudy
9:35 AM 73.4 °F - 64.4 °F 73% 29.99 in 10.0 mi ENE 6.9 mph - N/A   Partly Cloudy
10:55 AM 75.2 °F - 64.4 °F 69% 29.99 in 10.0 mi ENE 4.6 mph - N/A   Mostly Cloudy
11:15 AM 75.2 °F - 64.4 °F 69% 29.99 in 10.0 mi Calm Calm - N/A   Mostly Cloudy
11:35 AM 75.2 °F - 64.4 °F 69% 30.00 in 10.0 mi Calm Calm - N/A   Scattered Clouds
11:55 AM 75.2 °F - 64.4 °F 69% 30.00 in 10.0 mi NE 4.6 mph - N/A   Partly Cloudy
12:15 PM 75.2 °F - 62.6 °F 65% 30.00 in 10.0 mi Calm Calm - N/A   Clear
12:35 PM 78.8 °F - 64.4 °F 61% 29.99 in 10.0 mi ESE 3.5 mph - N/A   Clear
12:55 PM 78.8 °F - 64.4 °F 61% 29.98 in 10.0 mi Calm Calm - N/A   Partly Cloudy
1:15 PM 80.6 °F - 64.4 °F 58% 29.98 in 10.0 mi ESE 3.5 mph - N/A   Scattered Clouds
1:35 PM 80.6 °F - 64.4 °F 58% 29.98 in 10.0 mi East 4.6 mph - N/A   Partly Cloudy
1:55 PM 78.8 °F - 64.4 °F 61% 29.98 in 10.0 mi Calm Calm - N/A   Scattered Clouds
2:15 PM 80.6 °F - 62.6 °F 54% 29.97 in 10.0 mi Calm Calm - N/A   Scattered Clouds
2:35 PM 80.6 °F - 62.6 °F 54% 29.96 in 10.0 mi NE 6.9 mph - N/A   Scattered Clouds
2:55 PM 80.6 °F - 62.6 °F 54% 29.95 in 10.0 mi SSE 4.6 mph - N/A   Clear
3:15 PM 82.4 °F - 64.4 °F 54% 29.95 in 10.0 mi East 5.8 mph - N/A   Clear
3:35 PM 80.6 °F - 62.6 °F 54% 29.95 in 9.0 mi East 3.5 mph - N/A   Clear
4:15 PM 80.6 °F - 62.6 °F 54% 29.95 in 10.0 mi Calm Calm - N/A   Scattered Clouds
4:35 PM 80.6 °F - 62.6 °F 54% 29.94 in 10.0 mi NE 6.9 mph - N/A   Scattered Clouds
4:55 PM 78.8 °F - 62.6 °F 57% 29.93 in 10.0 mi NE 3.5 mph - N/A   Partly Cloudy
5:15 PM 78.8 °F - 64.4 °F 61% 29.93 in 10.0 mi NNE 5.8 mph - N/A   Clear
5:35 PM 78.8 °F - 64.4 °F 61% 29.94 in 10.0 mi ENE 4.6 mph - N/A   Clear
5:55 PM 80.6 °F - 64.4 °F 58% 29.94 in 10.0 mi East 5.8 mph - N/A   Clear
6:15 PM 80.6 °F - 64.4 °F 58% 29.95 in 10.0 mi East 3.5 mph - N/A   Clear
6:35 PM 80.6 °F - 62.6 °F 54% 29.95 in 10.0 mi East 4.6 mph - N/A   Clear
6:55 PM 78.8 °F - 64.4 °F 61% 29.95 in 10.0 mi East 3.5 mph - N/A   Clear
7:15 PM 77.0 °F - 64.4 °F 65% 29.95 in 10.0 mi East 3.5 mph - N/A   Clear
7:35 PM 75.2 °F - 66.2 °F 73% 29.94 in 10.0 mi Calm Calm - N/A   Clear
7:55 PM 73.4 °F - 66.2 °F 78% 29.94 in 10.0 mi Calm Calm - N/A   Clear
8:15 PM 71.6 °F - 64.4 °F 78% 29.94 in 10.0 mi Calm Calm - N/A   Clear
8:35 PM 71.6 °F - 64.4 °F 78% 29.95 in 10.0 mi Calm Calm - N/A   Clear
8:55 PM 69.8 °F - 64.4 °F 83% 29.95 in 10.0 mi Calm Calm - N/A   Clear
9:15 PM 41.0 °F - - N/A% 29.95 in 8.0 mi Calm Calm - N/A   Clear
9:35 PM 30.2 °F - - N/A% 29.96 in 9.0 mi Calm Calm - N/A   Clear
9:55 PM 28.4 °F 24.6 °F 26.6 °F 93% 29.97 in 8.0 mi NNE 3.5 mph - N/A   Clear
10:15 PM 28.4 °F 24.6 °F 28.4 °F 100% 29.99 in 7.0 mi North 3.5 mph - N/A   Clear
10:35 PM 28.4 °F - - N/A% 29.99 in 4.0 mi Calm Calm - N/A   Clear
10:55 PM 28.4 °F - - N/A% 29.99 in 2.5 mi Calm Calm - N/A   Clear
11:15 PM 28.4 °F - 28.4 °F 100% 29.99 in 4.0 mi Calm Calm - N/A   Clear
11:35 PM 28.4 °F - - N/A% 29.98 in 1.2 mi Calm Calm - N/A   Clear
11:55 PM 28.4 °F 24.6 °F - N/A% 29.97 in 8.0 mi NNE 3.5 mph - N/A   Clear